{"data":{"norad_id":55288,"intl_designator":"2023-010V","name":"STARLINK-5311","alt_names":[],"object_type":"PAYLOAD","status":"ACTIVE","operator":null,"country":"US","launch_date":"2023-01-19","launch_site_code":"AFWTR","launch_vehicle":null,"mission":null,"orbit_class":"UNKNOWN","rcs_meters":null,"size_class":null,"mass_kg":null,"dimensions":null,"purposes":["comms"],"wikipedia_slug":null,"has_3d_model":false,"image_url":null,"decayed_at":null,"tle_current":{"epoch":"2026-05-25T03:46:40.789920Z","epoch_age_seconds":55308,"freshness":"FRESH","line1":"1 55288U 23010V   26145.15741655  .00000191  00000+0  23809-4 0  9992","line2":"2 55288  69.9985 191.6367 0003699 267.0766  92.9970 14.98331487184726","mean_motion":14.98331487,"eccentricity":0.0003699,"inclination_deg":69.9985,"raan_deg":191.6367,"arg_perigee_deg":267.0766,"mean_anomaly_deg":92.997,"bstar":2.3809e-5,"rev_number":18472,"period_min":96.106903745526,"perigee_km":569.48041787398,"apogee_km":574.62216717279,"semimajor_km":6950.1882925234,"source":"CELESTRAK","updated_at":"2026-05-25T13:38:17.734488Z"}}}